Regional Weather Roundup
Issued by NWS

Home | Current Version | Previous Version | Graphics & Text | Print | Product List | Glossary On
Versions: 1 2 3 4 5 6 7 8 9 10 11 12 13 14 15 16 17 18 19 20 21 22 23 24 25 26 27 28 29 30 31 32 33 34 35 36 37 38 39 40 41 42 43 44 45 46 47 48 49 50
000
ASUS45 KTFX 121010
RWRMT
MONTANA REGIONAL WEATHER ROUNDUP
NATIONAL WEATHER SERVICE GREAT FALLS MT
300 AM MST TUE DEC 12 2017

NOTE: "FAIR" INDICATES FEW OR NO CLOUDS BELOW 12000 FEET WITH NO
SIGNIFICANT WEATHER AND/OR OBSTRUCTIONS TO VISIBILITY.

MTZ001>007-043-121100-
WEST OF THE DIVIDE

CITY           SKY/WX    TMP DP  RH WIND       PRES   REMARKS
KALISPELL      CLOUDY    22  21  96 S6        30.57S WCI  14
MISSOULA       FOG       18  15  88 CALM      30.58S VSB 1/4
BUTTE          FAIR       9   3  77 CALM      30.47S
MULLAN PASS    FAIR      36   3  25 SW3       30.43S
ANACONDA         N/A     16  12  86 SW3       30.48R
DEER LODGE       N/A     12  10  92 W3        30.50F
EUREKA           N/A     21  18  86 MISG      30.57F
HAMILTON         N/A     10   7  85 CALM      30.54S VSB 1/4
LIBBY            N/A     25  19  80 CALM      30.57F
RONAN            N/A     25  22  88 CALM      30.54F
$$

MTZ008-052>055-121100-
SOUTHWEST MONTANA

CITY           SKY/WX    TMP DP  RH WIND       PRES   REMARKS
BOZEMAN        FAIR      13   8  81 S7        30.46S WCI   3
DILLON         FAIR      21  10  62 SW9       30.46F WCI  11
W YELLOWSTONE  MOCLDY    -2  -6  84 CALM      30.58R
ENNIS          CLOUDY    27  14  59 S8        30.50S WCI  18
THREE FORKS      N/A      6   1  80 CALM      30.39S
$$

MTZ009-010-012-014-046-048-049-054-121100-
EAST SLOPES AND CENTRAL MONTANA

CITY           SKY/WX    TMP DP  RH WIND       PRES   REMARKS
CUT BANK       FAIR      48  -4  11 W25       30.18S
GREAT FALLS    FAIR      44   6  21 S17       30.25F
MALMSTROM AFB  FAIR      39  11  32 SW16      30.25F WCI  30
HELENA         FAIR      17  13  84 CALM      30.46S
BOWMANS CRNR   FAIR      34  11  39 S22       30.27F WCI  22
CHOTEAU          N/A     45  -2  14 S7        30.23F
FAIRFIELD      FAIR      40   8  26 S20G26    30.23F
POWER          FAIR      38   8  29 SW13      30.23F WCI  30
RAYNESFORD     FAIR      38  19  46 SW5       30.26S
ULM            FAIR      34  13  41 SE9       30.27F WCI  27
$$

MTZ011-013-016-021-045-047-050-051-121100-
NORTH CENTRAL MONTANA

CITY           SKY/WX    TMP DP  RH WIND       PRES   REMARKS
HAVRE          FAIR      33  19  56 SW17      30.19F WCI  22
LEWISTOWN      FAIR      30  22  72 SE5       30.25F
N BAR RANCH    FAIR      48  19  32 W7        30.26F
CHINOOK          N/A     21  16  79 CALM      30.20F
DENTON         FAIR      34  20  58 MISG      30.21S
GEYSER         FAIR      50  17  27 W20       30.23F
GRASS RANGE    FAIR      46  20  36 SW10      30.19F
STANFORD       FAIR      44  21  39 W3        30.25S
WINIFRED       FAIR      47  19  33 W10       30.21F
$$

MTZ017>020-022>027-061-062-121100-
NORTHEAST MONTANA

CITY           SKY/WX    TMP DP  RH WIND       PRES   REMARKS
GLASGOW        FAIR      28  21  75 CALM      30.16F
GLENDIVE       FAIR      22  19  89 S8        30.21F WCI  12
JORDAN           N/A     27  18  69 W3        30.20F
SIDNEY         FAIR      23  21  92 S9        30.19F WCI  13
WOLF POINT     FAIR      21  18  88 W6        30.18F WCI  13
MALTA          CLEAR     18  16  93 W8        30.18F WCI   7
PLENTYWOOD       N/A     27  21  80 CALM      30.13F
POPLAR           N/A     21  19  93 SW5       30.17F
$$

MTZ028>42-056>058-121100-
SOUTHCENTRAL AND SOUTHEAST MONTANA

CITY           SKY/WX    TMP DP  RH WIND       PRES   REMARKS
BAKER          FAIR      29  23  78 SW10      30.22F WCI  20
BILLINGS       FAIR      41  18  39 SW24      30.28F
LIVINGSTON     FAIR      33  17  51 NW26G35   30.36S WCI  20
MILES CITY     FAIR      21  19  92 S5        30.24F
BIG TIMBER     CLEAR     45  14  29 W31       30.31F
FORSYTH          N/A     27  18  69 SW3       30.24F
LAUREL           N/A     39  18  41 W12       30.31F WCI  32
$$

REGIONAL REPORTS...DAKOTAS

CITY           SKY/WX    TMP DP  RH WIND       PRES   REMARKS
WILLISTON        N/A    N/A N/A N/A MISG      30.18F
MINOT          FAIR      31  25  78 SW14      30.12F WCI  21
DICKINSON      FAIR      27  24  89 W15       30.18F WCI  15
BEACH          FAIR      25  21  86 CALM      30.23F
CROSBY         CLOUDY    28  25  86 SW13      30.12F WCI  18
TIOGA          FAIR      25  25 100 W8        30.14F WCI  16
WATFORD CITY   FAIR      27  25  93 SW7       30.17F WCI  19
BISMARCK       FAIR      19  19 100 CALM      30.21F
GRAND FORKS    CLOUDY    16  13  88 S12       30.17F WCI   3
FARGO          CLOUDY    13   8  81 S8        30.22F WCI   2
BUFFALO SD       N/A     26  21  81 W12       30.17F WCI  16
RAPID CITY     FAIR      20  15  81 CALM      30.28F
$$

REGIONAL REPORTS...WYOMING/IDAHO/WASHINGTON

CITY           SKY/WX    TMP DP  RH WIND       PRES   REMARKS
GILLETTE       FAIR      36  17  46 W14       30.30F WCI  27
SHERIDAN       FAIR      26  16  65 CALM      30.30F
BUFFALO WY     FAIR      41   1  18 CALM      30.33S
CODY           FAIR      24  15  68 CALM      30.38S
YELLOWSTONE LA   N/A      8   4  83 CALM      30.58S
IDAHO FALLS    FAIR      10   9  95 N6        30.58R WCI   0
SALMON         CLOUDY    14  12  92 N3        30.71S FOG
BOISE          CLOUDY    24  21  88 CALM      30.68R
SPOKANE        SNOW      25  25 100 SW5       30.57F VSB 1/2
$$

REGIONAL REPORTS...ALBERTA

CITY           SKY/WX    TMP DP  RH WIND       PRES   REMARKS
EDMONTON       CLEAR     34  23  64 SW10      29.94F WCI  26
CALGARY        PTCLDY    43  21  42 SW6       30.05F
LETHBRIDGE     CLEAR     54  -2  10 W38G47    30.10F
MEDICINE HAT   CLEAR     36  21  55 SW8       30.09F WCI  29
$$

REGIONAL REPORTS...SASKATCHEWAN

CITY           SKY/WX    TMP DP  RH WIND       PRES   REMARKS
SWIFT CURRENT  CLEAR     36  21  55 W15       30.05F WCI  26
REGINA         PTCLDY    28  23  80 SW10      30.03F WCI  19
SASKATOON      PTCLDY    27  23  86 SW13      29.98F WCI  16
$$



USA.gov is the U.S. government's official web portal to all federal, state and local government web resources and services.